Location: Endfield
(51.6667°N, 0.0667°W)
Time: 02:49:12
(UTC+00:00)

Cosmos 2056 Rocket - Pass Details

Date: 19 May 2024
Orbit: 740 x 798 km, 74.0° (Epoch: 21 June)

Event Time Altitude Azimuth Distance (km) Brightness Sun altitude
Rises 21:10:34 0° 332° (NNW) 3,316 8.7 -9.6°
Reaches altitude 10° 21:13:00 10° 330° (NNW) 2,379 7.6 -9.9°
Maximum altitude 21:18:20 61° 251° (WSW) 900 4.0 -10.4°
Enters shadow 21:23:30 10° 172° (S) 2,312 5.5 -10.9°
